| time (UTC) | temp F | wind direction | speed knots | gust knots | rain 1hr in | rain 24hr in | rain mn in | humidity % | barometer mb |
| 20260509091421 | 71 | 89 | 0.0 | 0.0 | 0.00 | 0.00 | 0.00 | 87 | 1009.5 |
| 20260509090918 | 71 | 117 | 0.0 | 0.9 | 0.00 | 0.00 | 0.00 | 87 | 1009.3 |
| 20260509090416 | 71 | 80 | 0.9 | 1.7 | 0.00 | 0.00 | 0.00 | 87 | 1009.5 |
| 20260509085913 | 71 | 66 | 0.0 | 1.7 | 0.00 | 0.00 | 0.00 | 88 | 1009.6 |
| 20260509085410 | 71 | 88 | 0.0 | 1.7 | 0.00 | 0.00 | 0.00 | 88 | 1009.5 |
| 20260509084906 | 71 | 29 | 1.7 | 4.3 | 0.00 | 0.00 | 0.00 | 88 | 1009.2 |
| 20260509084403 | 71 | 6 | 0.0 | 1.7 | 0.00 | 0.00 | 0.00 | 87 | 1008.8 |
| 20260509083901 | 71 | 98 | 0.9 | 4.3 | 0.00 | 0.00 | 0.00 | 87 | 1008.1 |
| 20260509083357 | 71 | 195 | 3.5 | 3.5 | 0.00 | 0.00 | 0.00 | 87 | 1007.7 |
| 20260509082854 | 71 | 55 | 1.7 | 2.6 | 0.00 | 0.00 | 0.00 | 87 | 1007.8 |
| 20260509082351 | 71 | 128 | 1.7 | 3.5 | 0.00 | 0.00 | 0.00 | 87 | 1008.1 |
| 20260509081848 | 71 | 136 | 1.7 | 2.6 | 0.00 | 0.00 | 0.00 | 87 | 1008.2 |
| 20260509081345 | 71 | 121 | 1.7 | 3.5 | 0.00 | 0.00 | 0.00 | 88 | 1008.2 |
| 20260509080843 | 71 | 179 | 2.6 | 3.5 | 0.00 | 0.00 | 0.00 | 88 | 1008.2 |
| 20260509080341 | 71 | 146 | 1.7 | 3.5 | 0.00 | 0.00 | 0.00 | 88 | 1008.4 |
| 20260509075839 | 71 | 199 | 0.9 | 2.6 | 0.00 | 0.00 | 0.00 | 88 | 1008.6 |
| 20260509075336 | 71 | 175 | 0.0 | 5.2 | 0.00 | 0.00 | 0.00 | 88 | 1009.1 |
| 20260509074833 | 71 | 185 | 2.6 | 3.5 | 0.00 | 0.00 | 0.00 | 88 | 1009.3 |
| 20260509074331 | 70 | 196 | 0.0 | 5.2 | 0.00 | 0.00 | 0.00 | 88 | 1009.5 |
| 20260509073826 | 70 | 253 | 0.9 | 3.5 | 0.00 | 0.00 | 0.00 | 88 | 1009.8 |
| 20260509073323 | 70 | 198 | 0.0 | 2.6 | 0.00 | 0.00 | 0.00 | 87 | 1009.8 |
| 20260509072820 | 70 | 169 | 0.9 | 3.5 | 0.00 | 0.00 | 0.00 | 87 | 1010.1 |
| 20260509072316 | 70 | 183 | 0.0 | 3.5 | 0.00 | 0.00 | 0.00 | 87 | 1010.6 |
| 20260509071813 | 70 | 190 | 2.6 | 2.6 | 0.00 | 0.00 | 0.00 | 88 | 1010.5 |
| 20260509071310 | 70 | 190 | 1.7 | 3.5 | 0.00 | 0.00 | 0.00 | 87 | 1010.8 |
| 20260509070807 | 70 | 128 | 0.0 | 2.6 | 0.00 | 0.00 | 0.00 | 87 | 1010.8 |
| 20260509070304 | 70 | 199 | 1.7 | 2.6 | 0.00 | 0.00 | 0.00 | 87 | 1010.7 |
| 20260509065800 | 70 | 187 | 2.6 | 2.6 | 0.00 | 0.00 | 0.00 | 87 | 1010.9 |
| 20260509065256 | 71 | 197 | 1.7 | 2.6 | 0.00 | 0.00 | 0.00 | 87 | 1011.0 |
| 20260509064752 | 71 | 220 | 0.9 | 3.5 | 0.00 | 0.00 | 0.00 | 87 | 1010.8 |
| 20260509064250 | 70 | 187 | 0.0 | 2.6 | 0.00 | 0.00 | 0.00 | 87 | 1011.4 |
| 20260509063748 | 70 | 205 | 1.7 | 1.7 | 0.00 | 0.00 | 0.00 | 87 | 1011.1 |
| 20260509063243 | 70 | 196 | 1.7 | 3.5 | 0.00 | 0.00 | 0.00 | 87 | 1011.5 |
| 20260509062741 | 70 | 177 | 1.7 | 1.7 | 0.00 | 0.00 | 0.00 | 87 | 1011.2 |
| 20260509062238 | 70 | 7 | 0.9 | 1.7 | 0.00 | 0.00 | 0.00 | 87 | 1011.1 |
| 20260509061735 | 70 | 245 | 0.9 | 3.5 | 0.00 | 0.00 | 0.00 | 87 | 1011.1 |
| 20260509061233 | 70 | 173 | 0.9 | 2.6 | 0.00 | 0.00 | 0.00 | 87 | 1011.1 |
| 20260509060730 | 70 | 201 | 0.0 | 0.9 | 0.00 | 0.00 | 0.00 | 87 | 1010.9 |
| 20260509060226 | 70 | 189 | 0.0 | 1.7 | 0.00 | 0.00 | 0.00 | 86 | 1010.9 |
| 20260509055722 | 70 | 183 | 0.9 | 3.5 | 0.00 | 0.00 | 0.00 | 86 | 1010.6 |
| 20260509055218 | 70 | 220 | 1.7 | 4.3 | 0.00 | 0.00 | 0.00 | 85 | 1010.8 |
| 20260509054715 | 70 | 214 | 1.7 | 2.6 | 0.00 | 0.00 | 0.00 | 85 | 1010.9 |
| 20260509054212 | 70 | 211 | 1.7 | 3.5 | 0.00 | 0.00 | 0.00 | 84 | 1010.8 |
| 20260509053710 | 71 | 162 | 0.0 | 1.7 | 0.00 | 0.00 | 0.00 | 84 | 1011.1 |
| 20260509053207 | 71 | 207 | 1.7 | 1.7 | 0.00 | 0.00 | 0.00 | 83 | 1011.4 |
| 20260509052705 | 71 | 193 | 0.0 | 1.7 | 0.00 | 0.00 | 0.00 | 83 | 1011.5 |
| 20260509052202 | 71 | 167 | 0.0 | 1.7 | 0.00 | 0.00 | 0.00 | 82 | 1011.6 |
| 20260509051700 | 71 | 37 | 0.0 | 0.9 | 0.00 | 0.00 | 0.00 | 82 | 1011.8 |
| 20260509051157 | 72 | 175 | 0.0 | 1.7 | 0.00 | 0.00 | 0.00 | 81 | 1011.6 |
| 20260509050654 | 72 | 184 | 0.0 | 0.0 | 0.00 | 0.00 | 0.00 | 81 | 1012.1 |
| 20260509050150 | 72 | 142 | 0.0 | 1.7 | 0.00 | 0.00 | 0.00 | 81 | 1012.5 |
| 20260509045648 | 72 | 47 | 0.9 | 1.7 | 0.00 | 0.23 | 0.23 | 82 | 1012.8 |
| 20260509045145 | 72 | 62 | 0.0 | 1.7 | 0.00 | 0.23 | 0.23 | 82 | 1012.9 |
| 20260509044642 | 72 | 347 | 0.0 | 0.0 | 0.00 | 0.23 | 0.23 | 81 | 1012.3 |
| 20260509044139 | 72 | 89 | 0.0 | 0.9 | 0.00 | 0.23 | 0.23 | 80 | 1011.4 |
| 20260509043635 | 72 | 142 | 0.0 | 1.7 | 0.00 | 0.23 | 0.23 | 80 | 1011.2 |
| 20260509043131 | 72 | 195 | 1.7 | 1.7 | 0.00 | 0.23 | 0.23 | 79 | 1011.1 |
| 20260509042628 | 72 | 166 | 0.0 | 3.5 | 0.00 | 0.23 | 0.23 | 79 | 1010.9 |
| 20260509042124 | 72 | 188 | 0.0 | 3.5 | 0.00 | 0.23 | 0.23 | 79 | 1010.6 |
| 20260509041621 | 73 | 189 | 0.0 | 2.6 | 0.00 | 0.23 | 0.23 | 78 | 1010.8 |
| 20260509041118 | 73 | 248 | 0.0 | 2.6 | 0.00 | 0.23 | 0.23 | 78 | 1010.8 |
| 20260509040617 | 73 | 171 | 0.0 | 1.7 | 0.00 | 0.23 | 0.23 | 78 | 1011.1 |
| 20260509040113 | 73 | 135 | 0.9 | 1.7 | 0.00 | 0.23 | 0.23 | 78 | 1011.4 |
| 20260509035610 | 73 | 103 | 0.0 | 2.6 | 0.00 | 0.23 | 0.23 | 78 | 1010.9 |
| 20260509035106 | 73 | 79 | 0.0 | 2.6 | 0.00 | 0.23 | 0.23 | 78 | 1010.9 |
| 20260509034604 | 73 | 145 | 0.9 | 4.3 | 0.00 | 0.23 | 0.23 | 77 | 1010.4 |
| 20260509034101 | 73 | 93 | 0.9 | 2.6 | 0.00 | 0.23 | 0.23 | 77 | 1010.4 |
| 20260509033558 | 73 | 135 | 0.9 | 2.6 | 0.00 | 0.23 | 0.23 | 77 | 1010.3 |
| 20260509033055 | 73 | 222 | 1.7 | 2.6 | 0.00 | 0.23 | 0.23 | 77 | 1010.1 |
| 20260509032553 | 73 | 155 | 0.9 | 2.6 | 0.00 | 0.23 | 0.23 | 76 | 1010.6 |
| 20260509032049 | 73 | 174 | 0.0 | 0.0 | 0.00 | 0.23 | 0.23 | 76 | 1011.3 |
| 20260509031547 | 73 | 37 | 0.0 | 0.0 | 0.00 | 0.23 | 0.23 | 76 | 1011.6 |
| 20260509031044 | 73 | 37 | 0.9 | 0.9 | 0.00 | 0.23 | 0.23 | 76 | 1011.8 |
| 20260509030543 | 73 | 44 | 0.0 | 1.7 | 0.00 | 0.23 | 0.23 | 76 | 1011.5 |
| 20260509030039 | 73 | 39 | 0.9 | 1.7 | 0.00 | 0.23 | 0.23 | 77 | 1011.6 |
| 20260509025535 | 73 | 64 | 0.0 | 0.9 | 0.00 | 0.23 | 0.23 | 77 | 1011.2 |
| 20260509025030 | 73 | 50 | 0.0 | 0.0 | 0.00 | 0.23 | 0.23 | 77 | 1011.1 |
| 20260509024526 | 73 | 66 | 0.0 | 0.0 | 0.00 | 0.23 | 0.23 | 77 | 1010.9 |
| 20260509024023 | 73 | 89 | 0.9 | 0.9 | 0.00 | 0.23 | 0.23 | 77 | 1010.7 |
| 20260509023521 | 73 | 159 | 0.9 | 2.6 | 0.00 | 0.23 | 0.23 | 77 | 1010.6 |
| 20260509023017 | 73 | 173 | 0.0 | 1.7 | 0.00 | 0.23 | 0.23 | 77 | 1010.5 |
| 20260509022514 | 73 | 116 | 0.0 | 1.7 | 0.00 | 0.23 | 0.23 | 76 | 1010.2 |
| 20260509022012 | 73 | 162 | 0.0 | 1.7 | 0.00 | 0.23 | 0.23 | 76 | 1010.0 |
| 20260509021509 | 73 | 161 | 1.7 | 3.5 | 0.00 | 0.23 | 0.23 | 76 | 1009.8 |
| 20260509021006 | 73 | 149 | 1.7 | 3.5 | 0.00 | 0.23 | 0.23 | 76 | 1009.4 |
| 20260509020504 | 73 | 159 | 0.0 | 3.5 | 0.00 | 0.23 | 0.23 | 76 | 1009.4 |
| 20260509020001 | 73 | 135 | 0.0 | 1.7 | 0.00 | 0.23 | 0.23 | 76 | 1009.4 |
| 20260509015459 | 73 | 164 | 0.0 | 1.7 | 0.00 | 0.23 | 0.23 | 75 | 1009.4 |
| 20260509014956 | 73 | 138 | 0.9 | 1.7 | 0.00 | 0.23 | 0.23 | 75 | 1009.3 |
| 20260509014453 | 73 | 181 | 1.7 | 2.6 | 0.00 | 0.23 | 0.23 | 74 | 1009.6 |
| 20260509013949 | 73 | 160 | 0.0 | 1.7 | 0.00 | 0.23 | 0.23 | 74 | 1009.3 |
| 20260509013446 | 73 | 217 | 1.7 | 1.7 | 0.00 | 0.23 | 0.23 | 73 | 1009.1 |
| 20260509012942 | 74 | 180 | 0.0 | 1.7 | 0.00 | 0.23 | 0.23 | 72 | 1009.4 |
| 20260509012438 | 74 | 209 | 0.9 | 4.3 | 0.00 | 0.23 | 0.23 | 72 | 1009.4 |
| 20260509011935 | 74 | 228 | 0.0 | 4.3 | 0.00 | 0.23 | 0.23 | 72 | 1009.6 |
| 20260509011433 | 74 | 198 | 1.7 | 2.6 | 0.00 | 0.23 | 0.23 | 71 | 1009.4 |
| 20260509010931 | 74 | 181 | 0.0 | 3.5 | 0.00 | 0.23 | 0.23 | 71 | 1009.5 |
| 20260509010428 | 75 | 220 | 0.9 | 3.5 | 0.00 | 0.23 | 0.23 | 71 | 1009.6 |
| 20260509005925 | 75 | 203 | 0.9 | 3.5 | 0.00 | 0.23 | 0.23 | 71 | 1009.5 |
| 20260509005423 | 75 | 258 | 0.0 | 1.7 | 0.00 | 0.23 | 0.23 | 71 | 1009.5 |
| 20260509004922 | 75 | 183 | 1.7 | 2.6 | 0.00 | 0.23 | 0.23 | 70 | 1009.5 |
| 20260509004419 | 75 | 193 | 3.5 | 4.3 | 0.00 | 0.23 | 0.23 | 70 | 1009.2 |
| 20260509003917 | 75 | 203 | 1.7 | 4.3 | 0.00 | 0.23 | 0.23 | 70 | 1009.2 |
| 20260509003414 | 75 | 159 | 1.7 | 3.5 | 0.00 | 0.23 | 0.23 | 69 | 1009.1 |
| 20260509002911 | 75 | 199 | 0.0 | 4.3 | 0.00 | 0.23 | 0.23 | 69 | 1009.0 |
| 20260509002409 | 75 | 184 | 1.7 | 5.2 | 0.00 | 0.23 | 0.23 | 69 | 1009.1 |
| 20260509001906 | 76 | 286 | 0.0 | 7.0 | 0.00 | 0.23 | 0.23 | 68 | 1009.1 |
| 20260509001402 | 76 | 189 | 0.9 | 3.5 | 0.00 | 0.23 | 0.23 | 68 | 1008.9 |
| 20260509000859 | 76 | 197 | 1.7 | 3.5 | 0.00 | 0.23 | 0.23 | 68 | 1008.8 |
| 20260509000357 | 76 | 139 | 0.9 | 2.6 | 0.00 | 0.23 | 0.23 | 67 | 1008.9 |
| 20260508235853 | 76 | 190 | 2.6 | 2.6 | 0.00 | 0.23 | 0.23 | 67 | 1009.2 |
| 20260508235350 | 76 | 157 | 0.0 | 5.2 | 0.00 | 0.23 | 0.23 | 67 | 1009.1 |
| 20260508234848 | 76 | 186 | 0.0 | 3.5 | 0.00 | 0.23 | 0.23 | 67 | 1009.1 |
| 20260508234344 | 76 | 175 | 0.9 | 4.3 | 0.00 | 0.23 | 0.23 | 67 | 1009.2 |
| 20260508233843 | 76 | 195 | 2.6 | 5.2 | 0.00 | 0.23 | 0.23 | 67 | 1009.3 |
| 20260508233341 | 76 | 163 | 0.9 | 4.3 | 0.00 | 0.23 | 0.23 | 67 | 1009.4 |
| 20260508232838 | 76 | 220 | 0.9 | 5.2 | 0.00 | 0.23 | 0.23 | 67 | 1009.4 |
| 20260508232334 | 77 | 224 | 5.2 | 6.1 | 0.00 | 0.23 | 0.23 | 66 | 1009.5 |
| 20260508231833 | 77 | 192 | 1.7 | 7.0 | 0.00 | 0.23 | 0.23 | 65 | 1009.4 |
| 20260508231328 | 77 | 220 | 1.7 | 5.2 | 0.00 | 0.23 | 0.23 | 64 | 1009.3 |
| 20260508230826 | 77 | 211 | 3.5 | 4.3 | 0.00 | 0.23 | 0.23 | 64 | 1009.2 |
| 20260508230322 | 77 | 232 | 0.9 | 5.2 | 0.00 | 0.23 | 0.23 | 64 | 1009.2 |
| 20260508225820 | 78 | 229 | 2.6 | 5.2 | 0.00 | 0.23 | 0.23 | 63 | 1009.5 |
| 20260508225316 | 78 | 186 | 3.5 | 7.0 | 0.00 | 0.23 | 0.23 | 63 | 1009.4 |
| 20260508224814 | 78 | 235 | 2.6 | 5.2 | 0.00 | 0.23 | 0.23 | 62 | 1009.3 |
| 20260508224311 | 78 | 186 | 1.7 | 2.6 | 0.00 | 0.23 | 0.23 | 63 | 1009.4 |
| 20260508223809 | 78 | 250 | 0.9 | 3.5 | 0.00 | 0.23 | 0.23 | 62 | 1009.4 |
| 20260508223306 | 79 | 252 | 0.9 | 2.6 | 0.00 | 0.23 | 0.23 | 62 | 1009.6 |
| 20260508222803 | 79 | 245 | 1.7 | 4.3 | 0.00 | 0.23 | 0.23 | 61 | 1009.5 |
| 20260508222300 | 78 | 245 | 1.7 | 4.3 | 0.00 | 0.23 | 0.23 | 62 | 1009.5 |
| 20260508221757 | 79 | 243 | 0.0 | 2.6 | 0.00 | 0.23 | 0.23 | 61 | 1009.5 |
| 20260508221253 | 79 | 246 | 0.9 | 4.3 | 0.00 | 0.23 | 0.23 | 61 | 1009.6 |
| 20260508220749 | 78 | 187 | 0.9 | 7.0 | 0.00 | 0.23 | 0.23 | 62 | 1009.4 |
| 20260508220246 | 78 | 201 | 2.6 | 5.2 | 0.00 | 0.23 | 0.23 | 61 | 1009.6 |
| 20260508215742 | 78 | 232 | 0.0 | 3.5 | 0.00 | 0.23 | 0.23 | 62 | 1009.5 |
| 20260508215239 | 78 | 214 | 3.5 | 5.2 | 0.00 | 0.23 | 0.23 | 60 | 1009.5 |
| 20260508214736 | 79 | 222 | 0.9 | 4.3 | 0.00 | 0.23 | 0.23 | 60 | 1009.4 |
| 20260508214233 | 79 | 215 | 3.5 | 5.2 | 0.00 | 0.23 | 0.23 | 60 | 1009.5 |
| 20260508213729 | 78 | 201 | 0.0 | 5.2 | 0.00 | 0.23 | 0.23 | 61 | 1009.8 |
| 20260508213226 | 79 | 210 | 5.2 | 6.1 | 0.00 | 0.23 | 0.23 | 59 | 1009.5 |
| 20260508212723 | 79 | 166 | 0.9 | 1.7 | 0.00 | 0.23 | 0.23 | 59 | 1009.6 |
| 20260508212219 | 79 | 146 | 0.9 | 2.6 | 0.00 | 0.23 | 0.23 | 58 | 1009.6 |
| 20260508210553 | 79 | 110 | 0.9 | 3.5 | 0.00 | 0.23 | 0.23 | 60 | 1009.9 |
| 20260508210051 | 79 | 110 | 0.9 | 3.5 | 0.00 | 0.23 | 0.23 | 60 | 1009.9 |
| 20260508205548 | 78 | 175 | 2.6 | 5.2 | 0.00 | 0.23 | 0.23 | 60 | 1010.3 |
| 20260508205044 | 78 | 221 | 2.6 | 6.1 | 0.00 | 0.23 | 0.23 | 61 | 1010.4 |
| 20260508204541 | 77 | 232 | 2.6 | 6.1 | 0.00 | 0.23 | 0.23 | 63 | 1010.6 |
| 20260508204036 | 76 | 201 | 3.5 | 7.0 | 0.00 | 0.23 | 0.23 | 65 | 1010.9 |
| 20260508203533 | 76 | 226 | 0.9 | 4.3 | 0.00 | 0.23 | 0.23 | 65 | 1011.2 |
| 20260508203029 | 76 | 221 | 0.9 | 4.3 | 0.00 | 0.23 | 0.23 | 65 | 1011.3 |
| 20260508202526 | 76 | 217 | 2.6 | 7.0 | 0.00 | 0.23 | 0.23 | 65 | 1011.3 |
| 20260508202023 | 76 | 331 | 1.7 | 5.2 | 0.00 | 0.23 | 0.23 | 65 | 1011.5 |
| 20260508201520 | 76 | 201 | 3.5 | 5.2 | 0.00 | 0.23 | 0.23 | 64 | 1011.4 |
| 20260508201016 | 77 | 235 | 3.5 | 10.4 | 0.00 | 0.23 | 0.23 | 63 | 1011.6 |
| 20260508200513 | 77 | 215 | 1.7 | 5.2 | 0.00 | 0.23 | 0.23 | 64 | 1011.6 |
| 20260508200009 | 77 | 204 | 0.9 | 5.2 | 0.00 | 0.23 | 0.23 | 65 | 1011.4 |
| 20260508195506 | 77 | 209 | 2.6 | 5.2 | 0.00 | 0.23 | 0.23 | 64 | 1011.6 |
| 20260508195001 | 77 | 217 | 1.7 | 5.2 | 0.00 | 0.23 | 0.23 | 63 | 1011.5 |
| 20260508194459 | 77 | 189 | 3.5 | 3.5 | 0.00 | 0.23 | 0.23 | 63 | 1011.5 |
| 20260508193956 | 78 | 221 | 1.7 | 4.3 | 0.00 | 0.23 | 0.23 | 61 | 1011.5 |
| 20260508193452 | 79 | 210 | 1.7 | 4.3 | 0.00 | 0.23 | 0.23 | 59 | 1011.6 |
| 20260508192949 | 79 | 190 | 2.6 | 5.2 | 0.00 | 0.23 | 0.23 | 58 | 1011.6 |
| 20260508192446 | 79 | 202 | 2.6 | 4.3 | 0.00 | 0.23 | 0.23 | 58 | 1011.7 |
| 20260508191943 | 79 | 198 | 1.7 | 4.3 | 0.00 | 0.23 | 0.23 | 59 | 1011.7 |
| 20260508191440 | 79 | 237 | 0.9 | 3.5 | 0.00 | 0.23 | 0.23 | 57 | 1011.6 |
| 20260508190937 | 80 | 238 | 0.9 | 3.5 | 0.00 | 0.23 | 0.23 | 57 | 1012.0 |
| 20260508190434 | 81 | 220 | 1.7 | 3.5 | 0.00 | 0.23 | 0.23 | 54 | 1012.0 |
| 20260508185930 | 81 | 237 | 2.6 | 3.5 | 0.00 | 0.23 | 0.23 | 55 | 1012.0 |
| 20260508185428 | 80 | 228 | 0.0 | 3.5 | 0.00 | 0.23 | 0.23 | 57 | 1012.0 |
| 20260508184925 | 80 | 223 | 1.7 | 2.6 | 0.00 | 0.23 | 0.23 | 56 | 1012.0 |
| 20260508184422 | 80 | 257 | 0.9 | 2.6 | 0.00 | 0.23 | 0.23 | 55 | 1012.0 |
| 20260508183919 | 80 | 192 | 0.9 | 1.7 | 0.00 | 0.23 | 0.23 | 57 | 1012.0 |
| 20260508183415 | 80 | 237 | 1.7 | 4.3 | 0.00 | 0.23 | 0.23 | 56 | 1012.0 |
| 20260508182910 | 79 | 208 | 1.7 | 2.6 | 0.00 | 0.23 | 0.23 | 57 | 1012.0 |
| 20260508182408 | 79 | 202 | 1.7 | 3.5 | 0.00 | 0.23 | 0.23 | 55 | 1012.1 |
| 20260508181903 | 78 | 252 | 0.9 | 3.5 | 0.00 | 0.23 | 0.23 | 58 | 1012.5 |
| 20260508181400 | 78 | 228 | 1.7 | 4.3 | 0.00 | 0.23 | 0.23 | 57 | 1012.6 |
| 20260508180857 | 78 | 218 | 1.7 | 5.2 | 0.00 | 0.23 | 0.23 | 59 | 1012.8 |
| 20260508180354 | 78 | 213 | 2.6 | 7.0 | 0.00 | 0.23 | 0.23 | 56 | 1012.8 |
| 20260508175850 | 78 | 215 | 0.0 | 7.0 | 0.00 | 0.23 | 0.23 | 58 | 1012.8 |
| 20260508175347 | 78 | 236 | 1.7 | 3.5 | 0.00 | 0.23 | 0.23 | 55 | 1012.9 |
| 20260508174845 | 77 | 225 | 2.6 | 2.6 | 0.00 | 0.23 | 0.23 | 56 | 1013.0 |
| 20260508174342 | 77 | 235 | 0.9 | 2.6 | 0.00 | 0.23 | 0.23 | 57 | 1013.1 |
| 20260508173839 | 77 | 157 | 0.0 | 1.7 | 0.00 | 0.23 | 0.23 | 57 | 1013.1 |
| 20260508173336 | 76 | 125 | 1.7 | 3.5 | 0.00 | 0.23 | 0.23 | 57 | 1013.2 |
| 20260508172832 | 76 | 205 | 2.6 | 3.5 | 0.00 | 0.23 | 0.23 | 56 | 1013.0 |
| 20260508172329 | 76 | 198 | 0.9 | 2.6 | 0.00 | 0.23 | 0.23 | 57 | 1013.2 |
| 20260508171826 | 75 | 186 | 0.0 | 3.5 | 0.00 | 0.23 | 0.23 | 60 | 1013.3 |
| 20260508171322 | 75 | 62 | 0.0 | 3.5 | 0.00 | 0.23 | 0.23 | 59 | 1013.5 |
| 20260508170819 | 75 | 144 | 1.7 | 3.5 | 0.00 | 0.23 | 0.23 | 58 | 1013.7 |
| 20260508170317 | 76 | 83 | 0.9 | 1.7 | 0.00 | 0.23 | 0.23 | 57 | 1013.8 |
| 20260508165813 | 75 | 183 | 0.9 | 5.2 | 0.00 | 0.23 | 0.23 | 58 | 1014.1 |
| 20260508165310 | 74 | 204 | 0.0 | 3.5 | 0.00 | 0.23 | 0.23 | 58 | 1014.0 |
| 20260508164806 | 73 | 261 | 0.0 | 3.5 | 0.00 | 0.23 | 0.23 | 59 | 1014.2 |
| 20260508164303 | 73 | 217 | 2.6 | 4.3 | 0.00 | 0.23 | 0.23 | 60 | 1014.5 |
| 20260508163801 | 72 | 201 | 0.9 | 4.3 | 0.00 | 0.23 | 0.23 | 62 | 1014.5 |
| 20260508163259 | 71 | 234 | 3.5 | 6.1 | 0.00 | 0.23 | 0.23 | 61 | 1014.7 |
| 20260508162754 | 71 | 218 | 4.3 | 5.2 | 0.00 | 0.23 | 0.23 | 61 | 1014.6 |
| 20260508162251 | 71 | 208 | 1.7 | 3.5 | 0.00 | 0.23 | 0.23 | 63 | 1014.5 |
| 20260508161748 | 70 | 178 | 1.7 | 3.5 | 0.00 | 0.23 | 0.23 | 63 | 1014.6 |
| 20260508161245 | 69 | 160 | 2.6 | 6.1 | 0.00 | 0.23 | 0.23 | 65 | 1014.7 |
| 20260508160743 | 69 | 267 | 1.7 | 6.1 | 0.00 | 0.23 | 0.23 | 65 | 1014.7 |
| 20260508160241 | 69 | 218 | 0.9 | 4.3 | 0.00 | 0.23 | 0.23 | 66 | 1014.7 |
| 20260508155737 | 69 | 197 | 1.7 | 4.3 | 0.00 | 0.23 | 0.23 | 66 | 1014.9 |
| 20260508155235 | 69 | 235 | 0.9 | 1.7 | 0.00 | 0.23 | 0.23 | 68 | 1015.0 |
| 20260508154731 | 68 | 160 | 1.7 | 3.5 | 0.00 | 0.23 | 0.23 | 70 | 1015.1 |
| 20260508154229 | 68 | 183 | 0.9 | 5.2 | 0.00 | 0.23 | 0.23 | 70 | 1015.0 |
| 20260508153726 | 67 | 197 | 0.0 | 1.7 | 0.00 | 0.23 | 0.23 | 73 | 1014.8 |
| 20260508153223 | 67 | 153 | 0.0 | 1.7 | 0.00 | 0.23 | 0.23 | 74 | 1015.2 |
| 20260508152719 | 67 | 156 | 0.0 | 3.5 | 0.00 | 0.23 | 0.23 | 74 | 1015.1 |
| 20260508152215 | 67 | 142 | 0.0 | 0.9 | 0.00 | 0.23 | 0.23 | 76 | 1015.5 |
| 20260508151712 | 66 | 227 | 0.0 | 1.7 | 0.00 | 0.23 | 0.23 | 74 | 1015.4 |
| 20260508151209 | 66 | 230 | 0.0 | 2.6 | 0.00 | 0.23 | 0.23 | 74 | 1015.7 |
| 20260508150705 | 67 | 160 | 0.0 | 2.6 | 0.00 | 0.23 | 0.23 | 75 | 1015.4 |
| 20260508150202 | 67 | 180 | 0.0 | 0.9 | 0.00 | 0.23 | 0.23 | 76 | 1015.4 |
| 20260508145658 | 67 | 112 | 0.0 | 0.9 | 0.00 | 0.23 | 0.23 | 77 | 1015.4 |
| 20260508145154 | 66 | 269 | 0.0 | 3.5 | 0.00 | 0.23 | 0.23 | 76 | 1015.3 |
| 20260508144652 | 66 | 143 | 0.9 | 4.3 | 0.00 | 0.23 | 0.23 | 78 | 1015.4 |
| 20260508144149 | 66 | 184 | 0.0 | 0.9 | 0.00 | 0.23 | 0.23 | 82 | 1015.4 |
| 20260508143647 | 65 | 138 | 1.7 | 1.7 | 0.00 | 0.23 | 0.23 | 81 | 1015.3 |
| 20260508143143 | 64 | 157 | 0.0 | 0.0 | 0.00 | 0.23 | 0.23 | 82 | 1015.8 |
| 20260508142640 | 64 | 136 | 0.0 | 1.7 | 0.00 | 0.23 | 0.23 | 81 | 1015.6 |
| 20260508142137 | 65 | 209 | 0.0 | 1.7 | 0.00 | 0.23 | 0.23 | 82 | 1015.9 |
| 20260508141633 | 64 | 157 | 0.0 | 0.9 | 0.00 | 0.23 | 0.23 | 81 | 1015.7 |
| 20260508141131 | 64 | 123 | 0.0 | 1.7 | 0.00 | 0.23 | 0.23 | 82 | 1015.7 |
| 20260508140628 | 64 | 160 | 0.0 | 1.7 | 0.00 | 0.23 | 0.23 | 85 | 1015.7 |
| 20260508140125 | 64 | 154 | 0.0 | 0.9 | 0.00 | 0.23 | 0.23 | 87 | 1015.6 |
| 20260508135620 | 63 | 164 | 0.0 | 0.9 | 0.00 | 0.23 | 0.23 | 87 | 1015.8 |
| 20260508135116 | 62 | 73 | 0.0 | 1.7 | 0.00 | 0.23 | 0.23 | 88 | 1015.8 |
| 20260508134613 | 63 | 97 | 0.0 | 1.7 | 0.00 | 0.23 | 0.23 | 89 | 1015.7 |
| 20260508134110 | 62 | 86 | 0.0 | 0.0 | 0.00 | 0.23 | 0.23 | 90 | 1015.5 |
| 20260508133607 | 62 | 66 | 0.0 | 1.7 | 0.00 | 0.23 | 0.23 | 91 | 1015.7 |
| 20260508133104 | 62 | 60 | 0.0 | 0.9 | 0.00 | 0.23 | 0.23 | 92 | 1015.7 |
| 20260508132602 | 62 | 87 | 0.0 | 0.9 | 0.00 | 0.23 | 0.23 | 93 | 1015.6 |
| 20260508132059 | 62 | 195 | 0.0 | 0.9 | 0.00 | 0.23 | 0.23 | 93 | 1015.7 |
| 20260508131554 | 62 | 190 | 0.0 | 1.7 | 0.00 | 0.23 | 0.23 | 94 | 1015.7 |
| 20260508131051 | 62 | 89 | 0.0 | 0.9 | 0.00 | 0.23 | 0.23 | 94 | 1015.6 |
| 20260508130548 | 62 | 57 | 0.0 | 0.0 | 0.00 | 0.23 | 0.23 | 94 | 1015.7 |
| 20260508130044 | 61 | 162 | 0.0 | 1.7 | 0.00 | 0.23 | 0.23 | 94 | 1015.8 |
| 20260508125540 | 61 | 230 | 0.0 | 0.9 | 0.00 | 0.23 | 0.23 | 94 | 1015.5 |
| 20260508125038 | 61 | 37 | 0.0 | 1.7 | 0.00 | 0.23 | 0.23 | 94 | 1015.3 |
| 20260508124536 | 61 | 141 | 0.9 | 1.7 | 0.00 | 0.23 | 0.23 | 94 | 1015.6 |
| 20260508124033 | 61 | 175 | 0.9 | 1.7 | 0.00 | 0.23 | 0.23 | 94 | 1015.5 |
| 20260508123531 | 60 | 55 | 0.0 | 0.9 | 0.00 | 0.23 | 0.23 | 94 | 1015.5 |
| 20260508123027 | 60 | 89 | 0.9 | 2.6 | 0.00 | 0.23 | 0.23 | 94 | 1015.4 |
| 20260508122524 | 60 | 89 | 0.9 | 1.7 | 0.00 | 0.23 | 0.23 | 94 | 1016.0 |
| 20260508122021 | 60 | 280 | 0.0 | 0.0 | 0.00 | 0.23 | 0.23 | 94 | 1016.7 |
| 20260508121520 | 60 | 339 | 0.0 | 0.0 | 0.00 | 0.23 | 0.23 | 94 | 1016.2 |
| 20260508121017 | 60 | 222 | 0.0 | 1.7 | 0.00 | 0.23 | 0.23 | 94 | 1015.8 |
| 20260508120514 | 60 | 127 | 0.0 | 1.7 | 0.00 | 0.23 | 0.23 | 93 | 1015.6 |
| 20260508120013 | 60 | 107 | 0.0 | 1.7 | 0.00 | 0.23 | 0.23 | 93 | 1015.7 |
| 20260508115510 | 60 | 89 | 0.0 | 0.9 | 0.00 | 0.23 | 0.23 | 93 | 1016.0 |
| 20260508115006 | 60 | 43 | 1.7 | 1.7 | 0.00 | 0.23 | 0.23 | 93 | 1016.1 |
| 20260508114503 | 60 | 22 | 0.0 | 1.7 | 0.00 | 0.23 | 0.23 | 93 | 1015.8 |
| 20260508113959 | 60 | 139 | 0.0 | 1.7 | 0.00 | 0.23 | 0.23 | 93 | 1015.7 |
| 20260508113457 | 60 | 115 | 0.9 | 1.7 | 0.02 | 0.23 | 0.23 | 93 | 1015.7 |
| 20260508112954 | 60 | 44 | 0.0 | 1.7 | 0.05 | 0.23 | 0.23 | 93 | 1015.8 |
| 20260508112451 | 60 | 55 | 0.0 | 1.7 | 0.07 | 0.23 | 0.23 | 93 | 1015.6 |
| 20260508111948 | 60 | 238 | 0.0 | 2.6 | 0.14 | 0.22 | 0.22 | 93 | 1015.6 |
| 20260508111445 | 60 | 89 | 0.0 | 0.9 | 0.09 | 0.22 | 0.22 | 92 | 1015.1 |
| 20260508110942 | 60 | 129 | 0.0 | 1.7 | 0.24 | 0.20 | 0.20 | 92 | 1015.6 |
| 20260508110440 | 60 | 125 | 0.9 | 3.5 | 0.24 | 0.20 | 0.20 | 92 | 1015.2 |
| 20260508105939 | 60 | 89 | 0.0 | 1.7 | 0.02 | 0.16 | 0.16 | 92 | 1015.1 |
| 20260508105436 | 60 | 171 | 0.9 | 2.6 | 0.05 | 0.16 | 0.16 | 91 | 1015.5 |
| 20260508104933 | 60 | 106 | 0.9 | 2.6 | 0.09 | 0.15 | 0.15 | 91 | 1015.1 |
| 20260508104431 | 61 | 158 | 0.0 | 1.7 | 0.02 | 0.14 | 0.14 | 91 | 1015.6 |
| 20260508103927 | 61 | 158 | 0.9 | 3.5 | 0.02 | 0.14 | 0.14 | 91 | 1016.1 |
| 20260508103424 | 61 | 154 | 0.0 | 1.7 | 0.05 | 0.14 | 0.14 | 90 | 1015.8 |
| 20260508102921 | 61 | 62 | 0.9 | 3.5 | 0.17 | 0.13 | 0.13 | 89 | 1015.7 |
| 20260508102420 | 61 | 150 | 0.9 | 2.6 | 0.57 | 0.13 | 0.13 | 89 | 1015.6 |
| 20260508101916 | 62 | 89 | 0.0 | 1.7 | 0.45 | 0.10 | 0.10 | 88 | 1014.9 |
| 20260508101414 | 62 | 134 | 1.7 | 2.6 | 0.09 | 0.03 | 0.03 | 87 | 1015.7 |
| 20260508100911 | 62 | 119 | 0.0 | 1.7 | 0.09 | 0.03 | 0.03 | 86 | 1015.3 |
| 20260508100410 | 62 | 152 | 0.9 | 1.7 | 0.00 | 0.01 | 0.01 | 86 | 1015.6 |
| 20260508095910 | 62 | 145 | 0.0 | 1.7 | 0.00 | 0.01 | 0.01 | 86 | 1015.1 |
| 20260508095409 | 61 | 98 | 0.9 | 1.7 | 0.00 | 0.01 | 0.01 | 86 | 1014.6 |
| 20260508094905 | 61 | 116 | 1.7 | 1.7 | 0.00 | 0.01 | 0.01 | 86 | 1014.7 |
| 20260508094402 | 61 | 93 | 0.9 | 1.7 | 0.00 | 0.01 | 0.01 | 86 | 1014.7 |
| 20260508093859 | 61 | 93 | 0.0 | 1.7 | 0.00 | 0.01 | 0.01 | 86 | 1014.6 |
| 20260508093356 | 61 | 116 | 0.0 | 0.9 | 0.00 | 0.01 | 0.01 | 86 | 1014.7 |
| 20260508092854 | 61 | 76 | 0.0 | 0.9 | 0.00 | 0.01 | 0.01 | 86 | 1014.8 |
| 20260508092351 | 61 | 98 | 0.9 | 1.7 | 0.00 | 0.01 | 0.01 | 85 | 1014.9 |
| 20260508091850 | 61 | 92 | 0.9 | 1.7 | 0.00 | 0.01 | 0.01 | 85 | 1015.1 |